Theta_e
286 286 286 285 285 285 284 284 284 283 283 283 283 283 283 283 283 283 283 283 283 282 282 282 282 282 282 282 282 282 282 282 282 283 283 283 283 283 283 283 284 284
285 285 285 285 284 284 283 283 283 283 282 282 282 282 283 282 282 282 282 281 282 281 282 282 281 281 281 281 281 281 281 281 281 283 281 282 282 282 282 282 282 283
284 284 283 283 282 282 282 283 282 282 282 282 282 282 281 281 281 281 281 281 280 280 280 280 280 280 280 280 280 280 280 280 280 281 281 281 281 281 281 282 282 282
283 283 283 282 282 282 282 281 281 281 281 281 280 280 280 280 280 279 279 279 279 279 279 279 278 278 278 278 279 278 279 279 279 280 279 279 279 280 280 281 281 281
282 282 282 282 282 281 280 280 279 280 280 279 279 279 278 278 278 277 277 277 278 277 277 277 277 277 277 277 277 277 277 277 278 278 277 277 278 279 279 279 279 279
281 281 281 280 280 279 278 278 278 278 278 278 277 277 277 276 276 276 276 275 276 276 275 276 275 276 276 276 276 276 276 276 276 276 276 276 276 277 278 278 277 277
279 279 278 278 278 278 277 277 277 277 277 277 276 275 275 275 275 275 274 275 274 275 274 274 274 274 274 274 274 274 274 275 274 274 274 274 275 275 276 275 275 275
278 278 277 277 276 277 276 276 275 275 275 275 274 274 274 274 274 274 273 274 274 273 273 273 273 273 273 273 272 272 272 273 273 273 273 273 273 273 273 274 274 274
277 276 276 275 275 275 274 274 274 274 274 273 273 273 273 273 273 272 272 273 272 272 272 272 272 271 271 271 271 271 271 271 272 272 271 272 272 272 272 273 273 273
275 275 274 274 274 274 273 273 273 272 273 272 272 272 272 272 272 271 271 271 271 271 271 270 270 270 270 270 270 270 270 270 271 271 271 271 271 272 272 272 272 272
274 274 273 273 273 273 272 272 271 271 271 271 271 270 271 270 270 271 270 270 269 270 269 269 269 269 269 269 269 270 270 270 270 271 271 272 272 272 273 272 272 272
273 273 273 273 272 272 271 271 271 270 270 270 270 269 270 269 269 269 269 269 269 269 269 269 269 269 269 269 269 269 270 270 271 271 272 272 272 272 272 272 272 272
273 272 272 272 271 271 271 270 270 269 269 268 269 268 268 268 268 268 268 268 268 268 268 268 268 268 268 268 268 269 269 270 271 272 272 272 272 272 272 273 273 272
272 272 272 271 271 270 269 269 269 268 268 268 268 267 267 267 267 267 267 267 267 267 267 267 267 267 267 268 268 269 270 271 272 272 272 272 272 272 272 273 273 272
272 271 271 270 270 269 268 267 267 267 267 266 267 266 266 266 266 266 266 266 266 266 266 267 266 266 267 267 269 271 272 272 272 272 271 271 272 272 272 272 272 272
271 270 269 269 268 267 267 266 266 266 265 265 265 265 265 266 265 265 266 265 265 265 266 265 266 266 267 270 273 272 272 272 272 272 272 272 271 271 271 272 272 272
269 268 268 267 267 266 265 265 265 264 264 264 264 264 264 264 265 265 265 265 264 264 264 265 265 265 269 272 273 274 273 272 272 272 272 272 271 271 270 271 272 272
268 267 267 266 266 265 265 264 264 263 263 263 263 263 264 264 264 264 264 264 264 264 264 264 264 267 270 271 273 274 274 273 273 272 271 271 271 271 271 271 271 270
267 266 265 265 265 264 263 263 262 262 262 262 262 263 263 263 263 263 263 263 263 263 263 263 263 266 269 271 272 274 274 274 272 272 271 271 271 271 271 270 269 269
265 264 264 264 263 263 263 262 262 261 262 262 262 262 262 262 262 262 262 262 262 262 262 263 263 265 269 271 272 273 274 274 272 271 271 271 270 270 269 269 269 268
265 264 263 263 263 262 262 261 261 261 261 262 261 262 261 261 261 260 261 261 261 261 261 261 262 267 270 271 272 273 274 274 271 270 269 269 269 269 269 269 269 269
263 263 262 262 262 261 260 261 261 261 260 261 261 261 261 261 261 261 260 260 260 260 260 260 261 266 269 270 271 272 273 271 270 269 268 268 268 269 269 269 269 269
264 263 262 261 261 261 260 260 261 260 260 260 259 260 260 260 259 260 260 259 259 259 259 259 260 263 268 269 271 272 271 269 269 268 268 268 268 268 269 269 270 270
264 262 261 261 260 259 259 261 260 260 260 259 259 259 259 259 259 259 259 259 259 259 259 259 260 263 267 269 270 271 271 269 268 268 267 268 268 269 269 270 270 271
262 261 261 260 259 261 259 259 259 259 259 259 259 258 258 258 258 258 258 258 258 258 260 260 260 261 265 268 269 271 270 269 269 268 268 268 268 268 269 269 270 271
261 261 260 259 260 259 258 258 258 258 258 258 258 258 258 258 258 258 257 257 258 258 258 259 259 260 261 268 269 271 272 270 269 268 268 268 268 269 268 269 270 270
Wind_Speed
7 6 7 7 7 6 6 7 6 7 7 6 7 6 6 6 6 7 7 7 7 7 7 7 7 7 6 7 7 6 6 6 6 6 6 5 5 6 6 7 6 6
7 7 6 7 7 6 6 6 6 7 7 7 6 5 5 6 7 6 6 6 6 7 7 6 7 7 6 6 6 5 5 5 6 5 6 7 6 6 6 7 7 7
7 7 7 8 7 7 7 6 6 6 7 7 6 7 6 6 6 6 5 5 5 5 5 5 6 6 7 7 6 6 6 6 6 6 6 6 6 6 6 6 6 7
7 6 6 7 6 7 6 7 7 6 6 6 7 5 4 4 4 5 5 5 5 5 6 6 7 6 7 6 5 4 5 4 5 5 5 4 4 5 6 5 6 6
7 6 6 7 7 7 7 8 7 6 6 6 6 6 5 5 5 5 5 5 6 6 6 6 7 7 7 6 6 5 6 5 5 6 6 6 5 5 5 6 7 7
6 6 6 7 7 6 7 7 7 6 5 5 5 4 4 4 4 5 5 6 5 6 6 6 6 6 6 6 6 5 6 6 7 8 8 7 7 6 5 6 7 8
6 6 7 6 7 7 7 6 5 5 5 4 3 4 4 4 5 5 6 6 6 6 6 6 7 7 7 6 6 6 6 6 7 8 8 7 7 8 7 8 8 8
7 6 6 6 7 6 7 6 5 5 4 4 5 5 5 6 6 5 6 6 6 6 7 7 7 8 8 7 7 7 7 5 6 8 8 7 7 8 8 7 8 8
6 6 6 7 7 6 6 6 5 5 5 5 5 5 5 5 6 6 6 6 6 6 6 6 7 6 6 6 6 6 7 6 6 7 7 8 8 8 8 8 8 8
6 6 6 6 6 5 6 6 5 5 5 5 5 4 5 5 5 5 5 5 5 5 5 5 5 5 5 5 6 6 6 7 7 7 7 7 7 8 8 8 9 9
6 5 5 6 6 6 6 6 5 5 5 5 5 4 4 4 4 4 4 5 4 5 5 5 5 6 6 6 6 5 6 6 7 7 7 8 8 8 8 8 9 9
5 5 6 7 6 6 6 5 5 5 4 4 4 4 4 4 4 4 4 4 4 4 4 4 5 5 6 6 6 6 6 6 7 7 7 7 8 7 8 8 9 10
5 5 5 5 5 5 4 4 4 4 4 4 4 3 4 3 4 3 3 4 4 4 4 5 5 5 6 6 6 7 8 8 7 8 8 8 8 9 9 9 9 9
5 5 5 5 5 5 5 4 4 4 3 3 3 4 3 4 4 4 4 3 4 4 4 4 5 6 6 6 6 7 8 9 9 9 9 10 9 10 9 10 9 10
5 5 5 5 5 5 4 3 3 3 3 3 3 3 3 3 4 4 4 4 4 5 5 5 5 5 4 6 8 10 9 10 10 10 10 11 11 11 10 10 10 10
5 5 5 5 5 4 4 2 2 3 2 3 3 3 3 4 4 4 4 5 5 5 5 4 5 4 7 13 12 10 10 9 10 10 10 11 11 12 11 11 11 11
5 5 5 5 4 4 2 2 3 2 2 3 3 3 4 4 4 4 4 5 5 6 6 5 5 5 12 15 15 15 11 10 10 11 11 11 11 12 12 12 12 12
5 5 5 4 4 3 2 2 2 2 2 3 3 3 3 3 4 4 4 5 4 5 5 5 6 10 15 15 15 15 14 11 10 10 10 10 11 11 11 11 12 12
5 5 3 3 3 3 2 1 1 2 2 2 3 3 3 3 4 4 4 4 5 6 6 6 7 11 15 16 15 16 16 14 9 9 10 11 11 11 12 12 11 12
6 5 3 3 3 3 2 1 1 1 1 2 2 2 3 3 3 4 4 4 5 6 6 6 8 11 15 16 16 16 16 14 10 11 10 11 12 11 11 12 12 12
5 4 3 3 3 3 2 1 1 1 2 2 1 3 3 3 3 3 4 4 5 5 5 6 7 14 15 16 16 16 17 15 9 9 9 10 11 11 12 12 13 12
5 4 4 4 4 3 3 1 1 1 2 2 1 2 2 3 3 3 4 5 5 5 6 7 7 14 16 16 17 16 17 10 8 9 9 10 10 11 11 11 12 13
5 5 5 4 4 3 2 2 2 2 2 1 2 3 3 3 3 3 3 4 5 5 6 7 7 11 15 16 17 18 14 9 9 8 9 10 11 11 11 12 11 12
5 5 5 5 4 3 2 2 1 2 2 1 3 3 4 3 3 4 3 4 5 5 5 8 7 10 16 17 17 17 14 10 9 9 10 11 11 11 11 11 13 21
5 5 5 5 4 3 2 2 2 2 2 2 2 2 4 3 3 4 4 3 4 6 9 10 8 10 15 16 17 17 13 9 9 9 10 11 11 11 12 12 14 15
5 5 5 4 4 2 2 2 1 1 2 2 2 2 3 3 4 4 5 4 4 5 5 6 8 7 10 18 17 17 17 11 9 9 11 12 12 11 10 10 11 12
Wind_Direction
79 83 88 83 77 73 74 77 72 77 69 63 61 54 50 42 36 38 36 33 33 35 31 32 29 28 22 19 17 16 20 15 11 14 2 2 360 1 352 351 345 342
76 78 82 84 84 77 73 72 76 76 75 68 61 57 53 45 37 39 34 30 31 34 30 31 29 27 21 19 14 15 16 13 10 6 1 359 357 353 350 346 344 337
83 85 85 86 89 84 79 73 72 68 70 66 57 47 41 38 34 33 30 32 30 34 31 28 29 27 22 16 12 11 13 4 2 1 359 353 345 345 339 335 334 333
79 82 88 87 84 82 71 69 60 58 60 60 53 47 47 40 36 34 31 27 30 28 28 27 26 21 20 11 8 9 4 2 350 349 344 340 337 335 332 327 324 323
84 79 74 76 74 74 72 71 65 59 60 61 53 42 39 35 31 30 27 22 28 24 21 23 20 17 12 9 4 3 360 356 356 356 348 343 344 344 332 335 331 327
73 74 72 78 78 82 78 76 74 71 71 70 63 54 50 47 46 41 29 28 26 27 22 22 17 13 9 6 359 6 357 353 352 353 350 347 342 347 341 339 336 334
100 92 90 90 93 89 89 85 83 77 70 75 74 57 45 40 38 33 26 26 25 25 23 15 13 7 6 360 0 357 356 350 348 350 346 340 338 337 342 339 336 330
102 99 101 100 95 88 82 79 69 62 63 62 60 44 40 34 32 25 23 20 22 21 18 15 11 6 360 358 354 350 347 350 343 342 336 331 333 328 332 330 324 319
105 101 100 96 95 92 91 86 80 71 58 57 50 42 36 38 26 24 19 17 22 18 14 11 5 360 354 350 344 341 337 333 334 332 329 327 327 323 323 321 317 314
103 112 116 116 100 94 87 75 69 62 52 50 44 35 37 31 29 23 21 19 18 19 16 6 359 348 346 342 335 333 330 326 327 327 322 320 317 317 320 321 319 318
126 133 114 97 90 83 76 69 60 56 47 44 38 29 30 25 21 20 21 20 13 11 1 357 351 341 336 335 332 329 326 324 323 322 319 315 313 313 315 315 315 314
129 110 93 91 90 84 77 69 63 54 47 40 39 22 25 17 18 18 12 15 0 5 357 347 336 329 328 327 326 326 325 319 315 312 313 315 314 314 316 315 313 312
107 100 101 97 91 85 79 69 59 52 43 36 27 18 23 6 11 14 358 6 354 4 349 344 330 327 328 325 322 323 321 319 320 321 319 320 316 313 313 313 310 310
111 112 102 94 90 86 76 68 61 48 39 22 26 16 18 7 1 359 352 356 354 352 342 335 331 325 323 321 318 318 321 323 323 321 317 315 310 309 308 307 306 304
123 108 102 96 91 88 77 62 55 44 25 18 23 12 7 356 355 349 346 350 349 343 337 332 323 317 323 319 321 324 323 318 317 314 312 310 308 307 305 303 300 301
120 110 106 104 97 92 81 63 59 35 20 16 14 3 353 353 347 346 346 346 341 334 335 327 316 312 304 312 315 313 315 312 308 305 305 304 304 305 303 300 299 297
123 113 108 104 100 94 87 64 42 17 14 5 3 352 346 349 343 339 348 339 336 331 327 324 306 297 306 313 313 312 309 304 301 301 300 299 298 298 298 298 297 295
122 114 107 108 110 98 88 63 37 10 360 359 344 342 340 336 332 336 333 328 323 321 315 309 300 299 311 311 309 308 305 301 299 296 296 292 292 290 291 293 295 296
117 112 115 128 120 117 98 76 68 351 339 332 326 318 316 320 323 325 313 313 311 309 306 304 295 301 307 307 306 305 304 303 295 291 288 287 288 290 289 290 291 291
117 112 130 150 140 124 125 109 137 283 290 291 285 304 305 304 300 296 299 298 297 299 298 296 293 296 304 304 306 305 303 301 292 291 288 287 287 287 285 285 285 286
124 129 149 165 155 140 134 164 200 250 270 275 271 288 293 288 291 286 280 277 281 286 289 289 284 299 304 306 305 304 302 303 298 295 290 286 284 282 279 281 284 283
131 142 163 177 158 142 139 174 217 241 256 273 268 270 256 263 268 267 278 281 282 284 287 287 286 302 306 306 305 305 306 306 298 291 288 285 285 285 282 283 284 284
148 153 175 179 155 143 159 199 219 241 246 240 255 269 280 274 269 271 276 279 282 276 284 286 285 300 304 305 305 306 309 299 292 289 289 289 288 285 283 281 282 283
152 159 179 176 154 160 181 211 216 249 242 231 270 285 286 276 285 283 267 266 275 278 279 288 286 297 304 306 306 304 304 300 294 289 282 286 287 284 282 281 274 274
152 169 181 170 158 172 173 208 238 242 256 260 252 258 270 283 284 286 277 267 259 267 285 291 287 294 302 303 304 304 304 297 290 281 281 287 289 285 276 270 272 266
162 175 182 159 160 159 181 211 235 237 252 270 275 274 282 287 286 279 283 275 265 264 266 276 284 283 292 300 303 304 304 300 293 287 283 283 275 266 266 264 263 268